Powrót do katalogu

FENGYUN 1C DEB

AktywnyPO
NORAD 30868·DEBRIS·🇨🇳 China

Wystrzelony May 10, 1999 z Taiyuan Satellite Launch Center

Loading…

Następne Przeloty (najbliższe 24 godziny)

TLE

ŚwieżeSource: Space-Track

Epoka: Sep 14, 2026, 10:44 UTC

1 30868U 99025AXE 26257.44768669  .00000087  00000-0  63091-4 0  9990
2 30868  98.2251 118.1827 0136377 139.4242 342.2793 14.11242932  5985

Śledź FENGYUN 1C DEB w czasie rzeczywistym z AllMySat

Download on the App Store